GFSCGP_250_rhum_000.txt.gz
RH
14 17 13 14 11 8 9 8 11 16 26 31 38 43 45 50 54 61 61 57 52 47 46 38 33 33 30 26 31 47 18 18 19 19 20 19 21 22 22 22 39 50 43 37
24 24 26 28 36 45 50 49 45 52 68 65 72 76 75 70 61 55 46 39 38 35 34 36 33 30 26 20 16 16 16 16 16 17 19 22 21 20 22 40 50 50 42 36
60 63 64 78 86 84 81 87 86 77 67 68 58 37 35 39 37 40 42 38 31 28 28 27 25 20 18 16 16 16 16 16 17 18 19 19 20 29 46 56 54 44 41 40
52 43 53 56 52 56 46 38 36 34 28 22 20 18 20 21 22 22 24 26 26 21 19 17 16 17 18 17 16 16 15 16 16 18 22 34 44 47 43 41 37 37 35 36
15 16 14 19 19 17 18 18 16 18 18 18 16 15 17 20 24 23 22 24 24 24 24 19 19 17 16 16 16 16 16 22 33 40 45 42 36 40 37 35 38 44 47 51
23 22 21 21 22 21 21 20 20 21 22 20 19 19 21 22 24 32 39 34 28 26 22 22 23 22 23 22 29 36 43 44 47 44 42 45 44 42 42 43 45 49 54 58
36 36 33 34 33 33 31 26 26 27 28 21 25 26 26 26 26 28 29 29 29 30 27 25 21 29 43 50 48 48 47 48 50 57 52 41 38 39 47 61 72 87 96 100
34 30 29 29 29 31 31 32 30 42 46 55 57 56 49 35 34 34 44 49 56 51 51 38 41 43 43 43 45 43 40 38 34 36 42 49 62 70 63 80 96 90 79 64
64 68 70 74 74 70 66 63 60 58 54 50 48 49 45 46 42 35 35 36 36 32 30 30 30 27 30 39 42 44 42 45 54 59 54 50 49 50 57 57 52 53 60 69
74 63 57 54 53 53 51 52 57 58 55 47 42 39 39 37 33 31 30 31 28 27 30 32 35 38 40 41 43 42 46 50 48 48 48 47 45 46 50 58 76 89 70 60
60 60 56 52 46 45 47 48 51 52 53 42 35 35 33 31 35 41 43 43 43 40 36 39 45 47 46 44 48 47 47 48 46 42 47 62 73 76 80 86 75 60 57 53
64 63 58 54 53 50 57 58 49 43 45 46 47 50 53 52 50 49 47 43 41 39 41 42 48 49 51 53 52 50 46 45 50 69 74 69 70 72 72 64 64 59 42 34
66 64 62 60 56 62 59 52 47 50 52 60 60 52 56 51 50 56 53 46 45 42 42 43 44 46 49 49 49 52 56 66 73 66 70 72 67 68 69 62 53 43 36 29
69 66 60 53 51 55 60 68 72 70 66 61 53 58 50 49 52 57 64 63 58 53 53 54 54 56 54 51 54 56 64 69 70 72 75 72 73 69 60 50 38 32 26 14
65 61 57 62 65 70 71 62 51 49 48 45 48 56 62 68 68 65 60 55 54 46 42 44 48 50 53 60 65 66 66 70 71 74 72 74 68 59 48 36 30 27 13 9
52 56 53 52 62 63 61 54 53 50 45 41 46 56 57 56 51 48 48 44 42 40 50 58 65 63 64 66 61 61 72 75 80 73 66 62 63 52 40 29 26 13 8 7
60 60 57 56 60 72 75 71 56 50 59 63 70 58 48 53 56 55 51 55 54 64 66 64 60 61 64 64 66 77 85 79 72 70 71 75 60 38 28 20 11 8 7 5
62 62 59 66 69 73 77 60 51 55 65 66 66 68 69 72 65 61 67 70 72 71 68 64 59 65 70 72 79 81 79 81 78 80 79 68 39 30 20 11 8 7 5 5
63 61 75 98 87 83 60 60 55 56 66 65 69 64 62 57 55 61 71 81 78 70 71 67 67 68 72 80 84 83 90 97 79 73 70 48 27 22 12 8 7 5 4 4
77 95 99 100 71 64 69 67 68 74 74 73 84 77 69 70 64 72 77 77 69 66 69 68 65 81 97 92 86 97 98 82 73 62 45 29 22 12 8 7 6 5 4 4
84 78 71 65 77 79 53 60 69 75 73 71 95 83 81 74 75 69 67 67 66 75 75 71 81 88 96 98 90 84 74 72 64 38 28 21 13 8 7 6 5 5 5 4
66 84 89 86 88 71 60 62 78 76 66 69 84 74 82 74 68 68 65 60 68 69 68 82 96 99 95 97 80 75 77 62 41 27 21 15 8 8 6 5 5 5 5 5
100 100 100 100 98 85 85 84 79 69 70 94 92 90 85 82 67 66 62 65 66 75 86 100 96 97 95 86 72 73 62 42 28 22 16 9 8 7 6 5 5 5 5 5
100 100 100 99 100 97 81 92 76 68 78 91 83 82 70 57 60 64 66 72 78 89 99 100 99 96 94 78 80 61 45 28 25 14 9 8 8 6 5 5 5 5 6 6
100 84 85 88 86 78 92 83 70 66 76 63 59 58 58 65 66 65 76 87 87 92 100 93 96 92 79 77 60 46 31 24 14 9 8 8 6 6 5 5 5 6 6 6
100 100 90 82 80 77 81 73 66 73 76 69 75 73 73 68 63 82 93 87 87 96 94 96 90 75 72 63 47 29 21 13 10 9 8 7 6 5 5 5 6 7 6 5

GFSCGP_250_rhum_003.txt.gz
RH
7 7 7 20 23 22 24 26 24 18 16 10 8 18 24 22 31 46 57 68 76 73 71 63 62 80 74 77 65 69 74 100 93 91 96 93 48 27 24 19 17 18 19 23
17 17 18 16 11 11 11 10 11 9 15 30 38 32 62 75 82 89 89 82 77 67 56 54 52 48 47 50 59 47 41 50 44 30 31 23 20 18 16 16 18 24 39 42
15 16 16 21 27 27 33 32 38 67 82 97 99 96 86 78 71 61 55 51 50 48 46 48 46 42 37 31 28 26 24 21 19 18 16 16 15 16 20 32 40 39 35 31
42 52 62 63 77 89 94 92 84 85 81 75 65 53 49 46 42 36 32 30 26 24 25 23 19 20 20 20 19 19 18 16 16 16 17 19 21 30 36 35 33 34 34 37
63 59 49 58 67 68 65 56 39 26 23 19 18 19 19 19 18 19 20 18 18 19 20 22 21 19 17 17 19 17 16 16 16 19 24 32 37 36 36 38 39 40 46 44
20 20 24 19 19 20 19 19 19 18 18 19 22 23 28 29 32 33 34 36 32 31 32 35 32 29 38 49 32 32 38 39 39 41 44 44 44 43 47 52 48 39 42 51
19 21 22 22 23 23 22 21 21 22 25 24 25 28 34 42 46 53 59 58 54 52 49 48 45 43 42 40 44 49 44 42 50 52 48 46 44 40 40 43 54 79 83 68
28 31 30 27 23 22 23 35 37 47 54 52 49 49 47 45 46 47 49 49 55 49 43 52 49 47 48 49 53 55 54 52 53 50 47 52 54 55 63 72 75 72 75 72
29 31 38 62 74 72 62 54 51 50 50 50 47 41 35 33 35 38 37 44 54 53 49 46 45 45 47 50 51 51 52 49 48 48 53 63 66 66 67 57 60 61 53 50
73 77 68 53 50 50 48 47 48 48 53 51 51 50 47 43 43 43 44 43 42 43 44 42 42 40 41 43 43 43 43 45 46 46 47 48 50 52 56 59 56 52 46 54
60 52 51 51 48 48 48 55 57 54 53 49 45 42 42 47 49 49 46 42 40 35 35 38 42 44 42 38 39 39 39 41 48 57 56 54 60 60 53 49 47 59 60 53
56 58 62 60 62 58 60 62 58 55 49 50 49 48 46 43 41 39 38 36 32 32 34 38 39 41 40 38 35 40 46 55 56 55 58 60 52 47 56 60 62 57 54 42
59 67 70 68 63 58 62 64 63 60 54 43 44 47 44 41 39 39 40 38 39 39 36 33 36 38 41 48 57 63 64 62 61 61 60 56 59 65 62 67 66 57 39 30
70 71 72 67 61 63 68 68 58 52 49 50 50 47 41 40 42 45 46 48 48 48 49 52 50 61 77 77 69 66 67 68 68 68 59 59 64 66 70 69 52 38 29 20
77 75 67 56 55 56 58 58 53 57 64 58 49 50 50 57 57 50 48 51 54 57 62 67 72 74 75 72 66 67 71 74 66 62 58 64 73 83 75 56 43 31 17 14
70 56 54 56 53 51 55 55 52 67 63 52 54 58 66 68 66 62 59 60 62 60 67 76 77 73 69 66 64 68 72 68 61 58 71 80 84 88 63 52 32 19 12 9
58 62 61 61 58 58 63 66 57 70 62 53 52 59 67 75 76 80 74 79 76 74 73 67 64 60 60 60 63 67 67 63 68 74 83 91 94 65 52 38 22 12 8 8
58 63 61 57 55 61 83 95 76 69 74 58 57 61 70 70 71 91 91 97 81 71 58 53 52 58 59 62 68 71 69 72 80 95 100 86 66 54 39 22 13 8 8 7
73 68 68 67 73 84 100 94 72 63 75 49 58 63 90 94 71 75 69 59 60 77 73 60 63 65 64 75 78 70 72 83 97 97 83 65 53 36 23 14 8 8 7 6
87 84 80 84 89 69 94 76 73 62 69 66 62 78 100 98 73 73 63 56 75 71 67 69 67 63 74 81 73 74 88 99 100 86 60 52 39 26 15 8 8 7 6 5
71 73 85 77 56 81 100 92 94 85 72 93 95 99 100 100 88 79 66 67 64 65 69 73 73 77 87 77 78 92 98 99 86 71 56 40 29 17 9 8 8 6 5 5
98 89 80 80 99 97 100 94 96 96 100 96 97 99 100 94 83 72 78 85 84 78 79 85 86 92 78 81 85 97 91 83 72 60 42 29 19 11 8 8 7 6 5 5
86 82 99 100 100 100 100 96 99 94 88 94 91 97 97 95 90 98 94 92 86 83 89 88 90 83 76 79 89 80 78 74 69 56 31 20 12 8 8 7 6 6 5 4
100 100 100 100 100 100 85 94 95 85 93 87 96 100 98 97 92 84 76 77 76 86 88 91 83 78 80 91 83 76 78 73 56 35 20 13 10 8 7 6 5 5 4 5
98 97 85 77 100 91 95 89 89 100 92 88 92 86 80 75 65 68 76 78 85 87 86 80 80 80 89 88 82 76 71 50 33 20 14 10 9 8 6 5 5 4 4 6
86 76 73 82 88 86 92 93 90 90 86 81 70 64 64 69 68 73 80 90 84 78 78 82 82 86 92 87 74 70 44 32 20 15 11 9 8 6 5 5 4 4 5 6

GFSCGP_250_rhum_006.txt.gz
RH
41 43 44 34 31 21 18 19 17 9 12 24 40 45 42 35 16 10 9 19 23 36 60 73 76 79 81 75 75 77 100 100 82 91 100 100 100 100 100 94 66 41 26 19
32 28 20 11 5 4 6 6 7 12 17 14 13 12 10 16 38 61 71 76 89 94 92 79 71 66 61 60 68 64 59 64 51 52 46 35 32 29 26 23 21 20 23 31
9 9 9 11 14 22 22 18 15 14 13 20 32 48 83 92 93 90 86 84 75 57 51 47 45 41 36 36 39 36 29 28 26 24 23 22 22 22 23 24 30 38 44 46
14 13 15 16 14 20 36 41 38 42 66 88 92 80 72 63 56 50 41 33 27 25 20 20 21 21 22 24 26 28 26 22 21 20 20 23 25 29 37 45 47 45 43 40
29 35 40 39 52 56 56 74 72 62 48 38 38 35 30 31 23 21 20 18 18 22 26 32 29 27 30 34 38 31 32 40 42 41 40 37 35 33 32 35 36 34 35 37
69 59 60 66 64 59 41 25 21 19 20 28 27 25 26 24 23 24 27 29 42 47 47 42 37 36 40 40 38 34 30 31 29 29 33 37 37 37 38 40 45 46 44 42
44 39 37 28 18 19 21 21 24 26 27 29 28 30 32 34 42 52 52 47 43 44 47 52 56 47 43 40 40 39 38 38 39 38 38 38 37 39 43 44 47 51 58 71
18 17 15 16 21 23 21 20 22 25 32 35 38 45 50 50 45 42 46 50 56 59 60 54 49 49 48 44 41 40 42 42 40 38 37 37 39 47 58 66 76 81 77 68
26 26 24 22 26 39 49 51 48 45 40 39 39 41 42 47 49 55 61 61 57 52 53 52 46 46 43 41 43 45 45 45 46 44 45 57 77 91 88 78 68 59 55 47
22 22 44 55 52 46 45 41 42 42 42 42 45 47 49 53 52 50 50 47 44 40 37 37 38 42 52 59 53 48 49 54 56 65 72 74 73 70 64 59 49 44 51 55
42 57 53 48 46 44 42 43 50 50 52 50 54 55 52 47 43 39 37 35 34 34 38 42 50 56 60 61 55 48 47 50 52 58 58 58 60 59 54 48 49 60 60 59
57 50 50 55 57 58 56 54 55 56 58 56 50 45 42 41 40 39 41 45 43 42 40 38 46 49 52 48 44 46 50 53 52 53 56 60 59 54 49 52 62 62 72 60
50 57 64 67 67 65 59 59 63 64 56 49 48 47 45 42 44 44 51 51 47 44 42 42 53 58 55 49 48 51 50 53 58 56 55 53 51 50 58 63 70 80 71 63
55 59 66 71 72 66 61 61 60 59 53 54 48 49 49 49 48 51 53 57 65 64 65 71 73 70 60 58 62 60 52 51 52 53 49 48 54 60 63 71 80 74 70 48
66 71 73 75 72 64 63 64 62 57 54 53 46 54 53 55 52 55 60 48 57 66 65 68 75 74 63 60 56 52 54 54 53 51 55 60 62 63 76 88 84 74 58 39
86 84 76 64 62 64 71 70 66 60 62 64 70 70 70 61 50 61 75 67 54 61 67 71 70 61 46 47 50 50 53 57 65 68 71 64 68 84 96 91 86 54 37 19
89 78 68 70 67 69 78 61 67 65 73 74 87 68 73 54 55 80 84 80 70 71 76 82 80 66 50 43 45 52 64 76 77 77 73 76 88 100 98 88 62 30 18 12
92 90 73 72 60 61 81 84 78 70 74 87 81 76 64 60 79 100 82 82 80 89 90 87 80 60 49 48 57 71 75 80 76 78 75 83 99 100 93 58 25 18 13 10
97 87 70 66 79 74 95 100 84 70 71 92 71 84 57 71 95 100 86 92 94 92 95 84 72 61 62 67 74 76 78 79 81 80 93 91 100 97 70 29 19 13 10 9
77 78 80 77 69 72 100 100 99 70 87 86 100 79 80 97 100 100 91 94 89 88 84 71 71 77 74 73 70 72 78 82 87 94 86 98 98 75 33 21 14 10 10 8
93 92 86 77 65 72 100 92 86 95 100 100 97 89 94 100 98 92 91 96 93 89 70 77 88 82 73 66 67 81 80 84 95 93 100 87 74 41 25 16 11 10 9 7
87 81 84 79 80 80 81 90 100 100 95 82 86 94 92 98 92 92 100 95 84 74 87 93 82 65 64 65 79 77 83 94 96 100 84 67 43 28 17 12 11 9 7 6
86 84 80 97 98 82 78 92 92 86 72 89 96 100 100 95 89 97 91 86 80 94 88 67 61 67 68 74 75 78 94 100 100 85 61 38 28 19 14 11 9 8 6 5
98 100 100 100 100 100 85 87 87 80 92 94 92 95 95 99 98 89 93 91 71 76 73 71 74 72 74 74 79 96 100 99 86 59 33 25 18 16 12 10 8 7 6 5
100 100 88 73 86 78 82 81 76 88 92 92 90 95 99 96 96 95 85 65 67 82 76 72 76 76 77 87 96 100 97 90 59 35 24 20 17 14 11 9 7 6 5 5
99 80 68 68 72 70 81 86 90 97 99 88 89 94 96 86 79 76 72 70 86 82 83 83 76 83 90 88 88 84 82 52 35 28 22 17 15 12 10 8 6 5 5 6

GFSCGP_250_rhum_009.txt.gz
RH
79 79 76 81 82 79 90 94 88 87 81 73 66 59 56 68 67 61 43 33 21 12 26 36 55 77 87 90 88 83 88 73 77 81 95 94 87 96 96 83 54 42 29 28
65 81 83 84 78 66 61 36 22 19 15 12 10 12 18 21 24 28 28 24 20 30 41 68 91 85 71 61 58 50 49 44 35 33 37 43 36 38 38 31 28 25 30 39
36 39 41 38 34 26 12 5 4 8 10 9 9 9 16 29 23 24 44 62 71 73 66 51 36 27 24 23 21 23 25 26 26 30 32 34 36 34 36 44 50 53 50 46
30 27 19 11 7 7 10 16 17 16 18 42 76 95 99 90 76 70 52 29 25 22 21 21 22 25 26 27 31 37 39 42 45 50 53 49 45 43 40 40 40 40 41 38
9 10 11 14 16 17 17 29 46 69 96 93 80 65 59 51 39 22 19 20 28 33 33 37 42 49 48 48 46 44 39 38 36 37 38 39 39 38 38 37 36 34 35 37
15 18 21 22 30 29 48 76 77 42 27 32 26 21 18 18 22 25 31 42 51 55 50 44 42 43 43 44 43 41 44 44 41 38 37 36 36 36 34 34 33 33 35 44
62 61 63 54 59 60 48 36 22 18 19 19 21 22 24 30 36 51 58 51 51 50 52 58 61 58 53 48 43 39 37 35 33 30 28 28 29 31 32 32 37 49 54 59
57 49 35 38 32 17 18 22 22 23 26 31 36 44 52 56 52 52 58 60 61 64 64 53 44 36 33 33 36 39 38 36 35 38 41 42 42 46 52 62 70 75 72 65
17 16 19 24 24 23 26 34 47 59 63 59 57 55 55 57 55 54 58 60 50 38 34 33 33 38 37 35 35 37 44 53 61 74 85 92 99 95 88 79 68 61 57 55
24 27 27 26 36 48 51 48 48 49 48 49 48 49 52 52 54 51 45 39 36 36 38 39 44 50 57 56 59 61 72 82 88 88 84 85 75 64 59 56 56 55 53 51
28 27 42 52 48 45 44 41 40 41 44 47 51 54 49 47 44 40 40 41 43 47 44 51 64 71 73 80 88 83 78 75 66 55 55 53 49 50 52 56 53 56 53 66
41 49 45 45 47 51 54 54 51 51 54 60 56 51 47 43 44 46 47 48 51 55 62 65 66 72 83 84 76 78 74 61 52 48 46 45 46 50 53 50 52 51 68 76
57 50 48 55 61 62 63 59 58 60 60 63 60 57 56 56 56 54 53 56 51 48 56 57 62 60 62 60 64 64 62 57 50 44 41 44 48 46 53 54 60 77 74 68
55 55 60 65 69 72 69 62 60 61 61 59 56 64 67 72 71 61 59 61 56 53 61 66 71 70 69 66 63 62 63 54 46 43 44 43 45 56 59 75 81 77 81 83
61 58 64 71 76 77 75 71 68 73 71 70 63 65 59 79 81 71 65 61 49 66 65 75 92 91 79 74 68 68 65 57 55 49 43 48 57 64 76 85 89 93 87 71
70 74 78 82 82 84 92 90 74 76 68 67 73 80 59 70 86 70 70 60 62 71 65 91 98 96 84 82 80 76 70 68 55 49 49 57 69 79 90 99 97 94 89 62
83 90 91 94 96 92 100 78 81 76 75 73 84 73 71 82 81 89 75 62 77 70 86 98 98 90 86 91 83 80 70 59 52 55 61 75 90 94 100 96 100 88 67 27
95 91 84 95 82 82 98 98 80 69 69 70 79 70 80 82 93 100 71 85 84 90 94 95 96 92 90 90 86 69 62 62 68 72 88 98 98 100 98 91 75 52 27 17
97 89 81 75 81 69 98 99 95 76 76 74 66 87 90 91 92 83 80 89 96 99 97 98 93 88 97 93 72 69 75 81 85 90 100 100 88 95 92 68 40 27 19 15
84 84 76 75 64 72 97 98 90 83 92 92 100 91 93 80 71 86 89 97 99 100 94 89 98 99 99 76 79 88 95 88 94 100 100 92 90 89 64 33 27 20 17 12
72 72 74 76 79 90 90 80 78 81 96 100 100 100 95 72 82 87 93 100 95 90 89 99 91 97 85 86 91 95 88 95 96 99 94 81 86 57 33 27 21 17 13 10
79 87 100 100 100 87 80 80 90 98 96 84 80 72 74 80 78 86 100 100 98 92 95 88 96 95 89 90 90 92 96 100 98 84 77 86 55 31 26 23 18 14 12 10
85 88 86 92 80 62 71 92 97 85 68 75 84 82 74 75 84 94 100 100 98 88 89 94 100 87 80 84 92 98 100 90 79 76 78 55 29 26 24 20 15 14 11 10
98 97 95 90 100 94 98 93 78 81 88 91 77 74 74 84 93 100 100 100 94 89 94 94 74 74 86 98 99 94 85 81 73 70 49 29 28 24 20 17 14 12 10 9
100 100 100 100 100 100 99 84 75 83 82 76 81 89 98 96 94 96 98 91 90 81 85 74 86 99 100 97 80 77 74 62 57 45 34 27 24 22 18 14 12 9 9 6
100 91 81 93 94 82 86 87 87 87 81 81 86 80 78 84 96 97 91 86 78 79 92 100 100 99 95 76 71 70 51 45 39 31 25 23 23 18 15 12 9 9 8 5

GFSCGP_250_rhum_012.txt.gz
RH
100 100 100 100 100 100 100 100 100 100 100 100 100 100 100 97 92 90 83 76 69 62 42 29 24 21 21 34 54 69 74 84 78 74 69 76 62 72 74 46 42 39 43 40
100 97 100 96 96 100 100 99 97 99 91 87 87 86 76 55 39 32 35 36 36 31 26 42 61 74 78 80 74 61 49 37 27 23 22 24 23 24 26 31 35 39 42 46
97 96 95 92 97 100 100 98 88 57 39 20 16 12 9 11 21 16 12 14 38 68 74 76 65 52 40 27 21 19 22 26 32 34 38 42 42 44 46 50 53 54 51 50
79 79 81 90 83 76 65 48 24 6 5 14 14 16 17 17 26 40 59 67 65 39 36 23 20 22 25 32 39 45 48 49 51 52 50 50 50 51 56 58 58 56 56 52
33 31 35 37 37 27 16 9 7 15 18 17 20 38 43 68 72 41 26 22 20 20 25 34 44 44 47 48 53 55 54 52 50 50 49 48 45 45 45 44 41 37 34 33
25 25 21 13 10 10 10 17 30 36 49 56 57 61 56 29 21 22 24 29 41 42 40 43 50 55 56 51 46 44 41 37 35 35 35 37 36 36 38 34 31 31 33 35
13 12 12 15 18 32 57 81 81 79 59 50 25 20 19 22 26 42 44 43 45 49 59 60 50 43 40 39 39 37 36 36 38 42 45 46 46 47 44 42 42 41 37 40
25 32 42 61 66 69 66 56 41 27 21 22 24 33 42 47 48 48 51 59 68 64 50 45 40 36 35 33 32 36 42 45 44 57 70 72 72 64 58 49 45 46 47 53
57 60 64 64 53 34 20 19 22 23 32 48 49 48 46 48 54 64 70 71 52 44 41 37 35 34 35 42 48 51 56 62 70 80 96 93 93 87 76 64 52 52 59 62
35 34 22 18 17 20 23 34 42 50 50 45 48 53 54 59 65 70 61 53 48 45 42 41 36 36 43 56 63 69 74 80 86 86 80 75 76 65 52 52 54 49 47 51
22 23 24 22 27 56 61 56 51 50 55 60 67 70 66 64 61 58 53 49 45 44 50 47 43 48 53 62 70 78 86 87 81 81 79 74 65 51 51 48 46 49 55 56
33 26 28 62 62 53 48 48 55 65 67 69 69 70 65 61 60 55 53 52 51 51 51 54 52 48 57 69 84 99 99 97 86 83 79 71 58 57 56 53 56 59 59 65
31 52 64 52 46 48 55 62 64 69 74 76 73 67 56 58 60 61 66 66 66 68 64 58 48 52 70 91 99 100 100 99 88 80 74 61 60 60 65 68 66 65 68 74
64 66 53 55 64 67 70 69 69 67 69 68 63 66 55 64 62 65 74 81 83 77 59 50 50 59 78 90 96 92 91 90 84 80 67 68 69 75 78 78 72 75 78 75
68 57 62 70 76 78 80 80 76 70 70 72 65 69 47 68 71 80 80 70 68 68 70 58 64 74 85 86 95 93 90 90 87 81 79 78 84 85 82 74 80 83 88 87
70 68 77 80 79 79 87 96 78 81 72 72 66 75 60 66 77 79 77 69 78 93 79 70 74 81 90 93 99 98 95 94 93 89 82 89 83 79 78 80 88 96 84 66
86 73 75 82 79 90 100 82 82 68 59 56 62 68 71 81 84 83 82 91 100 87 61 69 78 82 91 94 100 99 95 93 88 87 88 77 81 83 86 94 94 80 60 48
73 72 77 81 84 99 100 91 67 56 63 65 72 76 85 75 78 88 83 100 80 61 67 77 86 88 90 100 100 98 93 87 93 83 80 89 91 95 98 89 76 57 49 40
85 90 91 93 81 93 99 92 88 70 72 71 77 78 72 72 76 83 82 67 74 80 82 83 82 88 100 100 100 96 94 99 88 85 85 95 100 100 80 66 49 47 35 21
69 71 77 80 69 80 90 80 74 77 87 100 98 88 86 100 97 82 79 81 83 82 76 78 91 100 100 100 100 93 99 89 88 89 99 100 99 74 51 38 32 24 17 17
71 71 70 64 66 72 70 74 85 97 94 97 95 100 100 99 77 77 86 77 71 74 85 98 98 99 99 97 100 99 96 92 88 100 100 85 72 49 31 17 15 15 16 15
63 65 65 64 64 60 75 82 99 96 92 86 91 98 84 67 71 71 68 66 77 97 93 84 88 96 98 100 92 86 89 97 100 97 84 68 44 26 16 14 14 14 14 13
67 62 64 75 79 71 71 77 80 86 96 97 88 66 60 63 61 60 74 87 83 80 85 93 95 92 94 94 88 93 94 92 83 71 50 34 25 15 11 12 13 14 14 12
68 73 81 75 78 74 77 88 90 85 97 86 70 62 57 57 70 78 82 88 88 87 82 82 91 95 88 73 97 98 80 60 50 48 33 24 12 10 11 12 15 15 13 11
94 79 68 91 100 96 100 79 64 82 76 63 58 59 67 76 78 82 79 87 89 82 80 85 88 79 75 93 83 70 52 38 33 30 26 21 13 12 13 14 14 14 12 10
100 99 94 92 88 80 85 96 100 95 69 58 72 84 82 73 78 86 90 83 79 81 82 74 79 86 88 80 63 50 43 40 39 36 26 16 13 14 14 14 14 13 10 10

GFSCGP_250_rhum_018.txt.gz
RH
94 99 100 90 100 100 100 100 100 100 93 100 100 100 100 80 100 100 84 77 88 95 97 100 100 100 100 100 97 88 81 67 60 53 49 45 36 43 52 38 28 30 32 30
63 91 100 98 100 100 100 100 94 100 98 78 81 94 98 100 100 84 88 98 100 92 85 85 84 81 70 69 66 64 72 56 45 53 65 61 37 29 28 26 27 28 30 31
76 100 100 100 100 100 100 100 97 80 96 100 99 96 95 93 85 83 84 75 73 74 70 58 38 30 31 22 35 49 62 66 42 31 29 26 24 26 27 32 41 44 42 38
86 82 100 100 100 100 100 98 86 84 100 84 70 78 76 74 87 77 69 57 40 23 11 9 9 20 56 74 68 33 31 30 27 25 26 27 28 36 50 54 56 62 74 76
88 100 97 95 100 100 88 79 72 81 84 97 84 64 82 54 17 60 42 25 33 28 50 71 76 59 31 30 36 31 29 30 30 32 41 48 47 46 46 47 53 60 55 63
89 91 98 84 85 81 98 84 88 97 93 100 92 52 45 14 41 88 90 82 83 68 54 30 26 36 38 34 31 32 33 35 40 41 42 41 38 39 46 52 71 76 70 66
78 99 98 100 100 97 87 97 93 95 83 56 30 25 38 46 98 100 100 97 43 23 28 42 38 37 32 34 35 38 39 38 39 38 39 44 46 54 60 66 77 80 70 66
68 96 89 93 89 79 62 67 54 43 39 26 47 54 68 73 93 83 100 66 29 46 45 40 37 35 36 37 42 45 48 52 51 48 45 45 53 58 67 72 82 80 71 68
68 74 77 48 31 26 24 28 19 15 34 76 95 80 40 33 28 36 67 40 49 42 37 38 38 40 39 42 46 49 55 63 64 49 40 48 57 64 72 79 84 79 75 74
45 40 26 25 23 20 15 27 40 76 82 72 38 29 34 50 49 48 44 42 40 34 35 38 44 49 57 62 65 65 68 77 88 64 59 54 54 65 73 86 84 80 77 88
19 17 17 22 21 36 72 93 72 50 38 27 33 49 51 47 45 41 38 34 33 38 48 54 56 58 61 68 71 68 67 80 100 88 53 58 62 71 80 90 83 83 91 86
64 73 84 76 95 87 79 63 34 26 45 56 62 60 52 43 39 40 39 44 52 58 59 61 64 62 67 76 71 72 77 100 98 72 65 65 76 87 91 88 87 83 80 81
70 70 76 74 58 41 29 26 37 71 68 60 55 48 41 46 56 62 62 61 54 52 55 59 64 76 69 62 70 90 100 83 68 65 71 75 88 93 83 81 79 76 87 99
24 25 30 28 23 32 34 62 73 70 58 55 47 50 57 59 67 61 59 50 46 51 56 60 66 66 67 72 93 71 61 62 69 70 75 82 77 80 84 75 74 82 87 72
36 36 29 32 38 40 74 78 72 66 53 65 50 60 54 55 66 65 63 66 64 55 65 77 69 67 100 99 63 57 57 62 64 74 74 71 76 84 76 78 86 86 72 62
41 37 36 37 51 76 75 72 69 58 60 67 66 69 61 65 70 56 58 41 60 78 74 70 76 93 76 60 60 53 57 59 67 75 71 74 82 84 89 90 80 68 64 66
39 30 32 46 81 76 71 59 63 69 73 71 78 86 77 51 68 71 54 60 72 73 74 85 86 76 70 68 58 58 57 65 77 68 67 81 86 93 94 83 68 62 68 73
32 29 45 69 79 78 58 57 66 74 74 65 82 94 89 63 71 70 63 69 70 76 88 79 79 76 62 55 54 59 64 75 72 68 78 80 85 89 81 69 70 62 62 56
34 45 80 84 80 70 67 66 64 74 68 69 86 84 71 74 70 65 71 77 76 77 88 100 87 69 73 70 65 67 73 76 76 73 83 86 83 72 68 64 58 60 53 37
45 64 81 80 74 72 72 71 69 67 64 78 77 82 76 72 67 67 70 72 76 95 87 70 74 71 70 62 65 74 88 85 76 86 86 82 74 65 57 63 62 57 57 54
59 53 67 72 81 84 86 83 81 81 88 90 95 95 88 86 82 75 78 88 96 81 74 73 65 69 64 71 83 92 83 77 91 88 79 68 67 66 68 63 44 38 34 32
82 84 81 78 82 92 92 98 98 91 88 94 90 81 71 68 83 84 92 84 100 92 75 68 73 68 73 79 83 74 82 90 84 73 68 68 65 66 66 44 38 39 29 22
91 92 94 92 92 99 97 97 91 97 94 75 73 71 80 92 89 90 88 90 99 72 77 62 65 70 80 83 72 85 86 81 72 69 65 62 61 47 42 38 33 22 17 14
64 84 88 98 87 71 76 82 71 84 71 73 94 100 100 98 82 82 98 95 80 79 80 77 75 81 79 78 90 85 77 73 73 63 60 58 45 32 30 27 26 19 14 13
71 80 83 100 90 78 69 66 63 77 90 100 100 90 84 77 80 84 84 90 94 82 68 72 73 72 85 87 82 76 74 70 64 61 54 40 37 27 23 19 15 14 12 9
78 83 90 94 78 71 58 58 86 98 100 100 86 68 68 74 84 93 95 93 80 69 70 66 70 75 76 76 73 74 73 65 61 50 32 28 21 19 17 17 16 12 10 10

GFSCGP_250_rhum_021.txt.gz
RH
73 91 100 99 100 100 100 100 100 98 77 100 96 83 86 99 100 100 100 100 100 95 89 65 82 89 100 78 74 100 100 100 100 100 95 96 92 77 70 60 46 36 36 31
88 81 88 99 92 100 91 90 100 89 89 80 100 100 98 93 96 92 100 100 100 88 100 88 74 87 88 80 70 82 84 100 96 87 81 75 65 55 38 39 32 26 23 24
52 71 80 92 90 86 100 97 100 100 100 100 78 100 100 90 96 96 93 100 96 82 76 75 84 85 84 83 68 80 74 75 65 60 54 48 44 32 28 24 22 27 32 36
39 45 78 81 79 77 94 83 87 94 95 98 88 96 99 100 100 100 95 96 84 88 89 80 74 36 16 11 49 38 48 56 63 47 33 30 27 24 27 34 36 35 33 34
66 78 90 83 85 78 81 100 100 100 88 91 77 84 68 76 74 60 79 78 67 45 28 19 33 38 54 61 63 62 42 31 34 31 27 26 28 32 30 29 35 38 43 45
89 94 97 100 96 99 100 86 74 79 100 98 71 58 96 74 76 52 22 45 31 37 55 63 50 37 30 37 32 38 36 32 29 29 29 28 29 31 33 34 34 36 39 40
76 86 98 87 82 96 100 89 96 99 86 81 90 85 75 59 21 52 65 54 30 37 46 80 38 58 68 61 40 34 33 35 35 36 34 35 42 39 38 44 44 42 44 52
62 92 93 97 100 99 78 71 89 99 98 100 94 82 50 26 47 80 85 81 55 71 84 85 45 46 51 39 36 40 47 52 54 55 47 46 60 62 83 69 53 55 58 58
40 62 87 88 86 90 82 91 86 85 83 62 55 20 28 60 79 65 94 100 100 68 86 90 47 48 42 41 46 47 49 56 64 62 60 68 68 77 74 58 57 56 57 62
41 52 59 59 63 66 72 54 33 32 35 32 54 75 58 69 49 37 33 49 86 100 91 49 48 51 50 42 42 47 55 65 75 73 70 85 81 76 59 58 53 57 64 60
24 53 54 50 48 38 28 25 22 21 40 74 82 86 51 48 34 33 50 47 44 45 47 39 37 39 42 52 57 58 60 63 71 87 76 64 56 56 53 53 58 63 60 67
21 26 31 22 27 26 21 19 26 56 71 75 57 38 32 48 52 52 39 48 45 41 37 35 37 42 47 51 62 69 66 87 100 95 62 50 50 49 54 53 65 66 64 66
58 70 48 47 52 32 45 81 99 93 66 36 29 30 50 54 54 58 53 41 44 46 44 48 47 49 55 65 71 72 80 88 82 67 57 48 49 49 49 63 67 71 67 75
71 80 93 82 69 71 78 76 66 43 30 25 48 54 65 44 55 60 54 50 37 37 39 38 39 50 59 68 81 89 85 73 64 57 50 49 49 54 63 70 79 73 76 76
46 46 43 35 30 35 33 28 23 23 28 58 58 57 56 55 63 65 68 64 57 80 54 40 52 63 65 72 70 70 77 71 57 54 55 52 56 62 68 77 69 73 73 76
29 24 23 23 23 25 25 31 28 34 51 61 43 64 51 56 64 69 60 41 54 71 74 72 67 57 61 64 71 75 70 60 53 54 55 57 62 68 71 68 78 75 75 64
34 42 45 46 39 39 42 25 40 66 54 50 55 60 69 61 72 82 84 84 75 66 79 75 72 72 74 84 70 70 65 54 55 55 58 68 74 80 78 81 78 73 67 63
63 47 51 49 37 46 27 47 65 68 47 55 72 81 80 76 66 66 72 85 90 82 76 76 76 87 83 71 71 63 60 63 63 64 67 73 80 81 84 78 71 67 64 56
60 50 54 45 40 48 59 68 71 66 56 71 83 76 82 81 73 76 87 88 79 71 62 63 81 86 79 73 77 76 69 73 65 66 70 74 76 76 71 67 65 65 58 52
52 56 60 46 46 84 98 87 73 66 67 74 71 77 75 77 78 90 82 75 72 70 70 74 82 77 78 89 84 81 87 82 70 71 69 70 70 74 69 70 72 68 55 38
52 57 66 53 63 86 94 86 78 77 72 81 84 81 83 95 100 98 93 89 83 85 72 81 85 80 80 88 89 93 82 65 69 65 68 72 70 72 76 74 58 44 38 33
42 53 70 74 66 70 78 94 79 78 82 92 89 95 100 100 98 83 77 81 93 100 92 83 80 85 86 83 90 73 62 68 65 68 67 72 85 82 72 54 43 38 37 30
40 50 69 85 84 91 92 83 88 91 100 92 93 94 92 92 80 81 97 100 97 92 90 79 77 79 91 92 69 66 72 69 73 76 86 93 83 78 64 45 40 38 29 22
45 45 56 67 80 96 93 94 100 100 100 98 91 100 88 69 95 100 100 94 91 91 76 73 84 100 96 73 73 74 72 77 80 91 96 88 78 62 46 38 33 28 21 16
57 54 54 70 57 59 68 82 91 100 99 91 88 72 68 100 100 100 99 93 86 74 70 84 97 94 72 72 72 73 75 80 85 90 93 78 61 41 36 33 28 22 16 12
65 71 73 80 90 78 83 80 80 85 90 82 79 88 100 100 99 96 92 86 74 71 86 93 82 66 64 69 73 77 82 81 88 93 72 65 43 34 29 23 20 14 12 10

GFSCGP_250_rhum_024.txt.gz
RH
62 82 86 96 96 100 97 81 94 100 100 100 100 100 100 100 100 92 81 92 100 100 100 100 100 100 97 96 90 77 65 61 64 81 76 84 100 100 95 77 78 84 79 67
66 74 85 78 85 92 91 94 100 100 100 99 79 99 100 100 100 100 76 78 97 89 83 99 100 85 72 72 79 74 70 69 82 82 96 100 96 93 96 86 68 54 42 38
57 79 68 84 87 92 96 100 100 100 100 87 90 100 100 100 100 100 100 97 58 72 79 72 69 69 80 85 70 74 81 77 87 84 78 81 69 57 57 49 42 35 30 28
56 74 56 60 86 100 100 100 96 98 100 99 100 89 95 88 88 90 100 100 100 100 100 100 100 89 84 81 84 99 86 78 85 80 52 58 61 48 38 33 31 28 26 29
64 67 56 62 91 90 97 100 100 98 100 95 80 90 75 86 99 99 87 100 100 100 90 80 67 72 50 44 59 65 86 85 76 62 40 36 36 34 33 33 32 32 32 30
50 74 86 91 90 81 81 87 76 90 96 71 79 79 83 92 94 92 93 96 100 84 77 59 37 35 47 44 68 81 63 35 38 42 38 35 36 37 36 38 38 38 34 35
49 65 99 95 83 96 91 80 81 88 88 86 100 81 77 83 74 76 70 76 59 36 39 36 40 42 35 63 77 70 49 40 37 36 40 46 44 46 37 34 34 40 44 49
27 56 94 98 94 97 92 100 100 93 74 73 79 76 74 70 81 72 46 16 12 33 45 43 36 40 67 63 71 72 57 42 40 48 46 46 42 38 40 46 50 45 42 43
19 37 46 72 78 80 82 66 69 77 72 75 80 80 100 85 44 22 26 22 39 49 54 43 79 66 63 76 66 69 48 50 49 46 52 48 48 47 48 58 54 49 45 41
15 23 27 36 58 67 81 90 93 100 100 85 63 62 47 30 32 56 75 54 44 36 60 88 75 72 84 53 47 50 47 49 49 51 54 56 52 53 58 58 52 51 49 50
14 15 17 21 36 53 56 64 65 67 58 30 31 26 19 15 32 66 51 40 46 46 49 56 70 64 51 50 45 43 43 46 53 64 67 59 59 60 62 57 58 56 54 56
18 17 17 18 32 42 37 24 34 30 27 23 14 14 26 43 61 48 58 70 60 56 61 67 63 57 52 48 43 38 44 56 66 66 62 68 72 78 71 61 60 54 60 60
37 35 29 20 29 27 32 23 25 24 23 52 48 49 60 49 29 44 61 63 64 64 70 61 54 49 56 56 54 62 64 62 63 77 92 100 80 76 64 60 60 59 58 60
54 55 51 61 54 56 74 76 78 80 77 73 79 67 45 27 55 58 47 50 53 55 62 55 53 52 48 63 75 78 74 81 83 79 79 69 64 57 56 63 67 60 60 64
69 65 58 60 58 62 71 66 70 63 60 59 37 31 21 54 61 68 70 53 48 43 35 30 43 66 72 67 61 54 54 59 62 59 53 55 53 61 70 73 64 65 67 72
62 67 47 39 35 30 25 26 22 24 24 27 23 34 41 72 87 90 68 67 75 78 73 71 77 68 55 51 49 48 52 51 48 52 58 65 75 79 74 64 67 68 70 68
65 55 41 31 24 24 34 28 31 30 29 36 43 74 74 68 66 69 77 80 75 61 65 72 72 52 53 59 59 55 55 61 67 72 76 78 75 69 64 70 71 70 65 65
67 52 38 38 34 48 39 33 30 35 33 53 82 84 70 54 62 73 76 74 71 76 78 85 76 78 78 69 67 72 74 70 68 67 73 73 77 68 71 72 71 66 75 83
66 57 59 60 55 59 44 32 26 27 42 82 81 74 72 70 64 64 65 70 86 87 93 80 74 71 76 78 73 76 70 63 62 73 81 87 67 68 75 67 58 65 75 82
64 53 66 83 59 60 57 43 25 35 81 89 85 83 80 80 80 73 82 92 91 87 72 64 67 81 87 93 95 92 82 70 73 80 87 72 68 67 60 68 80 87 88 73
66 46 46 66 58 66 59 42 43 57 92 98 92 85 82 85 91 97 95 94 87 75 75 79 88 97 96 96 88 81 81 80 81 81 67 62 73 67 69 84 93 93 80 64
74 48 39 42 54 57 67 64 66 96 100 96 88 90 90 92 99 100 98 95 93 95 85 96 100 96 96 96 91 85 79 77 77 64 63 74 70 71 85 96 99 92 71 61
77 51 40 38 46 49 71 95 100 93 94 98 100 100 100 100 96 92 96 96 90 74 91 100 100 100 92 84 80 79 79 83 69 68 75 74 74 91 100 100 91 83 65 49
75 54 44 41 45 47 62 89 98 100 99 95 91 90 92 93 98 100 98 86 82 92 97 99 98 91 82 84 83 84 84 73 70 71 79 82 87 96 99 93 83 67 51 44
82 48 43 48 55 47 48 61 81 89 91 92 96 96 95 91 84 81 93 99 100 100 98 92 86 83 84 85 88 84 75 70 73 81 78 79 97 98 91 82 69 52 41 30
81 58 55 47 54 57 58 55 54 64 79 98 100 100 100 100 100 100 97 99 99 90 86 84 86 87 89 85 80 73 68 75 81 74 78 94 92 88 76 68 52 40 29 20

GFSCGP_250_rhum_027.txt.gz
RH
36 38 71 77 76 100 100 100 100 100 100 100 99 100 97 90 100 100 100 100 100 100 100 100 100 100 100 100 100 100 100 100 97 92 94 95 92 85 76 67 73 76 83 80
35 44 46 83 99 88 100 100 100 100 100 98 88 78 94 68 67 76 75 87 83 90 98 100 100 100 93 93 100 100 100 100 92 79 81 78 72 63 60 67 76 78 70 68
37 50 45 66 88 95 97 100 100 100 100 100 100 98 100 100 91 75 85 75 73 65 62 64 88 100 100 100 100 100 91 78 69 60 54 55 58 60 64 62 57 54 47 38
32 51 58 65 76 86 77 82 100 99 100 100 100 100 94 96 93 94 84 70 70 79 86 63 74 100 100 87 68 48 47 50 50 55 52 64 66 63 60 52 40 36 34 35
21 45 58 63 60 88 99 83 80 79 91 97 90 83 88 100 100 93 94 96 99 100 100 100 78 65 55 48 54 66 61 70 69 88 87 93 83 46 43 40 37 38 42 40
18 30 55 75 79 84 100 100 98 81 99 99 84 81 96 100 100 99 97 98 76 61 76 80 100 99 92 83 66 87 83 100 100 100 94 86 50 48 42 38 45 45 39 38
18 18 50 64 64 85 91 100 100 99 70 71 77 77 73 76 88 84 94 100 87 83 65 52 54 60 52 36 43 63 92 100 96 84 85 77 48 40 39 44 43 40 41 45
20 18 32 59 59 70 84 94 100 100 91 77 74 64 61 79 87 87 91 95 91 85 84 57 20 22 47 44 44 89 94 94 90 67 52 41 42 44 44 41 43 55 57 55
28 16 17 24 54 69 65 71 86 92 76 65 73 75 77 81 83 77 67 80 78 58 24 39 54 56 49 55 86 93 84 53 42 43 42 45 40 38 40 51 54 52 56 57
29 20 17 22 29 38 60 76 64 72 76 76 72 82 79 79 80 68 45 27 21 43 68 70 69 70 84 74 76 72 64 58 49 49 43 36 41 52 52 50 51 52 53 51
25 27 24 19 19 19 37 58 70 74 84 81 85 93 86 52 37 37 21 24 58 59 43 29 45 57 54 45 53 58 59 54 46 36 38 54 59 53 52 50 53 61 62 63
28 30 32 22 17 21 26 36 56 76 56 64 72 55 29 26 22 19 47 67 62 36 43 59 61 57 55 68 66 57 47 39 36 37 47 49 43 46 53 64 72 68 63 63
33 30 33 48 30 19 17 26 31 26 22 36 33 18 18 34 51 72 80 50 40 46 65 64 60 64 66 60 56 57 50 45 41 46 55 60 63 70 77 70 64 62 65 69
37 36 33 39 43 47 33 20 27 50 43 35 40 45 57 86 85 50 47 79 71 68 54 62 74 76 84 89 89 82 83 91 96 94 81 70 66 67 60 56 56 65 69 70
44 41 39 46 56 58 62 62 57 60 55 56 58 69 56 67 59 44 70 84 72 58 73 80 84 80 67 62 70 79 96 100 92 73 66 60 62 58 55 56 62 66 68 65
39 42 44 56 67 63 52 37 32 29 21 25 29 27 27 28 30 40 62 68 67 77 76 72 68 66 74 76 80 90 88 76 68 61 55 62 59 58 60 60 67 76 66 72
34 42 36 62 65 60 35 27 20 25 30 34 35 32 31 32 40 65 62 62 71 71 73 74 71 75 75 78 75 64 63 61 58 54 61 61 63 67 67 70 79 73 69 75
37 46 42 58 59 48 38 30 39 37 37 41 42 40 29 35 60 71 73 70 68 72 73 75 77 82 83 79 74 72 70 64 62 66 68 72 76 74 79 82 78 70 75 79
42 36 49 49 64 64 57 41 43 40 47 55 42 34 30 38 64 72 66 67 69 68 70 77 86 86 90 86 75 71 68 70 70 73 74 82 81 81 82 80 78 82 79 77
57 46 51 54 66 68 90 65 48 50 74 53 34 37 47 58 68 71 75 78 77 80 89 88 87 86 79 75 71 69 77 87 84 83 89 86 86 85 87 84 81 72 76 72
56 56 57 50 61 65 69 58 70 63 72 57 52 56 65 81 89 90 90 92 96 100 97 89 80 71 66 68 77 81 87 86 90 97 92 88 82 83 85 82 77 79 72 77
54 48 58 62 72 61 50 41 47 63 60 57 63 80 90 97 100 97 94 96 92 89 88 85 84 84 87 85 93 94 98 97 96 91 90 86 86 88 88 78 76 73 77 94
58 52 57 69 79 77 55 44 43 55 54 56 70 73 83 92 88 84 81 86 90 92 94 96 99 84 84 96 100 100 100 100 98 96 90 87 86 84 76 77 77 75 79 80
61 76 76 78 87 80 69 51 45 51 54 49 57 80 91 93 95 93 96 99 94 96 97 84 80 91 96 95 94 100 100 100 95 89 86 82 77 74 76 79 74 72 73 74
61 78 97 100 95 87 73 55 54 65 70 64 58 65 78 84 86 89 98 93 86 76 80 95 100 100 99 98 98 98 100 92 84 82 77 72 72 74 79 76 67 61 68 64
81 100 92 100 92 96 87 59 54 73 84 86 80 76 73 78 89 99 90 80 87 95 100 100 100 96 93 93 99 99 86 81 79 72 73 72 71 73 70 62 55 66 67 54

GFSCGP_250_rhum_030.txt.gz
RH
24 19 46 41 76 89 100 100 100 100 88 84 94 100 100 100 100 100 100 100 100 100 100 100 100 100 86 82 96 93 96 95 96 95 99 77 67 66 69 93 92 85 79 79
22 20 43 43 66 86 100 100 98 97 99 76 79 94 100 100 100 100 100 100 100 100 100 100 96 97 98 72 65 60 46 50 58 59 58 57 68 90 100 91 81 72 64 58
21 22 26 48 51 76 88 99 99 89 97 74 80 92 99 100 98 99 100 93 97 98 100 100 100 100 100 100 99 100 91 88 82 95 94 92 85 79 75 62 54 58 63 54
21 21 20 47 54 63 84 88 100 100 100 99 68 75 100 99 90 89 81 91 95 85 88 92 82 90 84 81 100 100 100 100 100 92 84 72 64 58 46 45 53 58 43 35
22 22 19 48 55 63 74 93 99 100 100 100 98 94 84 68 65 64 62 75 74 68 62 62 71 58 77 100 86 90 92 100 87 76 74 68 72 82 70 58 55 46 36 37
26 20 22 29 49 58 73 81 95 99 94 93 99 100 96 73 72 75 79 86 94 90 73 66 59 62 64 62 57 60 81 100 84 84 78 97 93 82 76 75 60 42 42 40
31 20 26 19 37 46 75 91 96 95 100 100 100 98 84 91 82 76 85 78 67 68 77 72 75 81 70 53 50 64 96 100 88 98 100 95 84 86 75 65 51 43 39 38
32 23 22 25 21 36 58 71 77 81 84 83 94 98 91 100 94 79 72 69 69 74 71 63 57 59 65 70 78 80 76 100 100 100 100 100 95 73 51 45 44 43 43 47
34 28 23 27 19 22 28 64 74 75 80 80 84 78 68 84 87 90 90 86 82 75 61 59 66 72 64 28 41 53 85 100 100 99 91 72 58 55 49 47 44 41 43 41
39 30 27 26 23 17 22 38 78 85 76 76 82 85 70 73 95 100 100 100 100 99 88 54 27 25 36 54 65 60 87 79 66 54 50 53 54 51 49 44 43 43 44 51
41 31 28 28 25 18 19 30 55 69 93 91 87 95 84 82 89 90 98 99 68 62 53 50 58 59 48 34 38 49 45 50 56 56 55 53 52 54 46 39 38 46 56 53
48 41 29 29 25 21 18 16 30 45 84 91 94 100 100 93 90 100 90 38 37 42 56 69 57 36 43 50 50 45 62 61 58 59 59 56 52 44 41 43 50 53 47 52
57 42 33 33 27 23 32 28 19 27 41 56 61 54 42 78 90 56 28 26 30 73 70 61 34 48 62 58 52 61 76 79 74 65 68 59 50 50 52 52 52 51 58 65
63 50 30 36 27 28 57 48 45 24 28 41 30 25 30 47 48 74 90 84 72 55 41 31 45 68 74 65 67 75 77 72 69 72 73 74 74 68 62 60 59 65 71 73
61 52 32 36 27 27 64 62 62 63 66 74 65 79 64 72 93 100 99 88 64 42 31 43 67 67 64 68 72 80 86 80 80 85 89 86 80 76 70 69 70 74 73 78
60 56 36 39 32 27 36 69 49 49 46 52 56 42 25 27 41 60 61 48 35 29 37 67 67 59 69 77 82 78 75 85 99 100 100 98 94 81 68 65 67 72 79 81
76 61 44 45 38 31 54 48 56 50 30 26 25 26 27 26 27 30 31 31 41 70 81 73 71 79 78 80 82 85 97 100 100 98 93 88 80 68 65 68 76 79 83 88
88 64 50 53 45 41 39 54 54 47 34 35 47 43 35 29 34 39 37 38 52 79 84 85 85 84 84 83 84 96 98 94 84 76 77 77 72 70 71 80 84 88 97 98
84 68 58 48 44 44 52 48 53 52 55 54 50 42 35 32 29 33 38 56 70 80 77 70 69 75 83 88 93 93 89 95 90 80 73 69 73 77 88 93 94 100 100 96
80 70 63 55 52 51 56 53 57 64 100 63 40 47 54 35 27 34 52 67 75 78 75 78 87 91 91 81 74 85 87 85 76 73 74 79 82 93 95 97 100 99 100 92
88 82 59 51 51 52 50 52 56 77 86 71 67 63 57 63 51 39 41 58 75 82 81 81 82 76 76 88 93 93 78 65 71 78 81 88 98 100 99 100 100 100 92 81
98 78 78 66 54 52 50 48 59 60 58 48 43 47 62 60 66 72 72 77 83 85 84 83 87 91 91 81 66 62 72 78 84 86 94 96 99 99 99 99 100 96 89 89
84 83 85 75 69 63 57 50 61 66 66 65 51 44 47 57 57 56 67 76 81 84 90 95 88 74 65 67 70 78 86 92 94 98 98 100 100 100 97 99 95 92 88 97
71 78 73 91 77 67 56 57 69 88 79 75 68 57 49 52 57 60 59 60 66 70 71 70 68 71 77 80 88 93 98 98 100 100 100 100 100 95 96 94 94 89 98 86
86 90 92 84 71 55 57 84 80 82 88 86 74 62 52 59 67 77 80 77 75 76 81 84 87 90 90 94 100 100 100 100 100 100 99 91 87 90 92 91 87 95 82 79
100 94 83 86 62 55 68 96 92 98 95 90 92 87 71 62 63 69 73 81 89 91 94 97 99 100 100 100 100 100 100 100 96 88 80 84 89 89 84 84 89 81 82 78

GFSCGP_250_rhum_033.txt.gz
RH
45 38 27 22 30 49 65 72 92 86 72 89 92 100 92 100 100 100 100 100 100 100 100 100 100 100 100 100 100 100 100 100 100 100 100 100 100 100 100 94 97 95 91 84
52 41 32 24 24 50 61 96 84 100 99 96 96 95 83 96 100 100 100 100 98 100 100 99 100 100 100 100 100 100 100 100 100 98 96 100 99 90 95 96 92 77 76 75
58 42 36 24 23 40 52 84 100 100 100 90 92 99 100 90 85 95 100 100 100 98 95 100 100 100 100 93 75 74 83 91 86 77 80 75 47 59 62 64 57 66 68 61
58 48 38 31 24 24 61 60 89 94 86 100 86 86 89 99 100 100 100 100 100 99 94 100 95 100 100 96 96 69 61 69 66 70 72 69 87 94 94 100 84 77 57 50
65 52 41 34 26 24 33 57 77 95 98 100 100 100 72 81 97 98 86 92 100 99 100 96 99 93 97 100 100 89 87 83 69 91 98 84 94 83 68 62 54 53 59 66
70 56 42 32 30 26 22 61 65 84 95 99 100 100 100 71 83 65 74 88 81 77 69 70 78 75 72 74 73 79 73 66 72 92 79 96 91 75 61 75 82 90 86 66
69 66 48 33 28 29 25 32 61 73 86 90 98 84 75 89 99 84 71 75 70 75 59 57 56 56 64 62 59 69 80 89 91 100 94 75 90 98 100 89 95 92 78 71
68 70 52 35 28 31 28 21 52 69 82 97 100 96 60 91 100 81 98 99 98 97 84 69 67 66 67 64 67 67 68 89 98 100 100 98 100 100 100 100 100 90 68 53
81 80 52 38 32 32 29 23 26 71 75 98 95 100 85 100 96 82 97 92 92 93 87 77 72 72 67 65 77 72 71 85 78 98 100 100 100 100 100 84 65 52 59 51
83 79 54 36 33 35 29 27 23 43 69 73 100 99 92 99 100 100 82 79 75 80 92 83 88 85 77 67 32 32 37 50 80 100 100 100 96 78 54 64 65 73 58 51
70 70 57 40 35 32 33 30 21 22 64 75 94 100 93 100 100 98 100 90 83 82 76 80 86 63 48 32 40 50 52 50 55 75 79 82 85 82 70 80 83 64 60 48
74 74 58 45 36 34 35 30 29 24 32 68 92 84 76 99 100 97 100 100 96 90 89 85 38 38 38 52 52 48 47 53 67 90 100 100 100 100 98 76 66 58 49 49
85 88 57 43 34 34 35 34 27 37 25 32 48 65 67 75 96 95 98 100 97 84 84 49 27 37 68 69 57 63 62 65 80 99 100 100 99 91 74 50 50 51 58 65
87 67 52 41 35 33 36 38 34 38 60 46 36 38 52 62 60 48 38 48 71 64 22 44 61 79 66 45 69 68 67 72 80 98 98 89 74 52 54 53 53 63 72 73
82 73 54 38 38 42 42 42 40 48 52 64 57 42 30 56 91 89 67 58 56 66 56 68 64 48 36 64 73 73 68 69 76 77 66 65 64 57 52 61 77 86 76 80
100 93 58 52 47 42 43 40 48 40 60 61 55 79 65 69 67 69 76 78 58 35 28 28 27 29 48 74 80 76 70 69 70 70 63 65 68 75 86 88 90 90 90 76
93 86 68 64 52 54 40 37 42 38 56 51 36 38 36 29 29 28 32 40 42 38 27 26 26 29 47 72 71 66 65 65 71 74 81 85 88 95 98 100 99 88 77 76
100 100 73 70 56 72 48 37 39 40 51 53 46 36 34 38 42 38 44 45 46 57 52 42 36 40 55 69 73 73 73 78 82 94 93 98 100 100 100 90 79 80 79 76
100 94 85 66 68 85 59 53 41 40 57 54 54 53 54 49 58 60 50 44 39 42 50 54 61 71 82 88 88 87 87 93 97 92 96 100 100 90 79 82 87 83 85 80
100 97 80 75 78 94 75 59 44 45 54 32 53 68 73 70 70 70 73 58 35 36 49 73 94 100 100 98 94 93 96 86 81 89 98 91 80 80 87 90 79 84 84 93
100 87 90 92 95 100 88 65 49 49 54 44 45 58 66 75 74 69 67 61 66 68 60 68 78 85 86 82 76 70 81 87 90 92 78 78 86 90 81 77 83 89 94 96
100 93 88 96 89 100 75 71 54 51 53 50 47 62 65 61 47 43 44 53 62 62 59 60 65 71 73 77 80 79 73 74 77 80 91 92 78 74 86 93 97 100 100 99
100 100 92 63 99 100 96 72 59 67 56 49 42 62 76 75 68 60 48 46 46 52 58 60 62 64 68 68 68 75 79 80 86 87 77 72 80 92 98 97 100 98 93 97
96 73 60 86 100 100 97 62 68 75 56 53 49 59 67 76 80 80 72 65 54 54 58 62 65 68 71 75 76 73 75 75 73 75 82 92 99 100 100 100 98 96 100 100
85 72 78 83 100 99 80 80 80 70 58 52 61 75 73 75 85 83 79 79 80 80 80 78 78 77 77 78 81 81 83 89 94 99 100 100 100 100 99 96 98 99 99 96
80 83 84 85 100 98 92 84 90 76 64 53 68 95 84 86 92 98 97 95 92 88 87 89 88 87 87 86 83 86 95 100 100 100 100 97 88 83 90 100 100 99 94 84

GFSCGP_250_rhum_036.txt.gz
RH
62 68 69 53 42 30 30 52 65 69 84 90 94 100 90 100 100 100 100 100 100 100 100 100 100 100 100 100 100 100 100 100 100 100 100 100 100 100 100 100 100 100 100 100
58 45 71 57 48 33 29 43 62 67 99 87 100 100 83 94 100 100 100 100 100 100 98 100 100 100 100 100 100 100 100 100 100 100 100 100 100 100 100 99 100 100 100 93
50 52 51 56 54 35 31 32 60 59 87 96 86 93 99 94 99 97 99 97 99 92 100 100 90 100 95 100 96 92 95 100 100 100 100 90 100 100 98 90 86 82 80 91
41 51 63 53 55 39 30 29 59 69 63 90 90 88 100 99 98 95 100 100 100 94 80 89 76 78 69 66 86 96 96 94 86 90 88 93 90 84 77 78 67 62 69 81
38 33 60 49 46 45 32 31 39 76 69 72 79 83 85 85 94 100 100 100 100 100 100 55 71 71 58 79 76 66 60 65 61 55 61 51 58 65 67 67 64 60 52 46
73 49 40 31 48 54 36 34 32 59 79 73 84 80 79 70 82 82 92 100 100 100 100 100 100 100 100 100 97 93 91 94 85 93 88 85 80 82 72 56 48 48 49 45
77 57 34 31 49 57 37 34 30 34 73 81 81 83 79 96 94 67 75 70 83 94 100 100 100 96 91 81 74 74 71 65 71 87 90 100 100 100 87 59 75 88 94 97
58 48 46 37 46 56 37 34 31 29 39 84 90 83 74 78 77 77 88 69 72 63 62 71 95 89 75 70 62 56 57 65 100 100 100 100 100 92 76 74 100 99 100 100
66 42 48 44 38 52 38 34 35 32 30 54 75 75 63 65 90 80 98 99 75 72 67 67 66 64 67 74 80 67 66 67 64 100 100 100 100 100 100 100 100 100 100 99
82 47 49 50 53 58 40 33 36 35 36 30 58 80 66 60 68 100 94 98 100 100 88 71 69 67 66 64 78 76 71 69 43 100 100 100 100 100 100 100 100 100 100 81
94 60 46 55 70 65 45 31 34 36 39 30 32 88 69 60 68 75 97 100 99 99 95 87 69 57 58 61 63 55 53 48 50 58 100 100 100 100 100 100 100 100 95 71
96 65 47 59 85 70 51 34 34 39 40 50 30 48 54 70 67 64 73 91 98 91 94 92 84 79 83 75 65 32 30 40 51 54 51 65 100 100 100 100 100 100 100 100
94 80 60 69 92 76 58 40 33 41 37 46 50 31 27 57 77 74 60 67 69 80 86 83 89 92 84 81 49 42 49 58 59 53 57 68 77 100 100 100 100 100 100 100
82 99 92 96 81 82 67 42 34 39 45 39 58 60 38 35 36 51 64 61 66 70 69 58 56 76 57 39 49 76 88 82 64 72 86 99 99 100 100 100 100 95 83 64
100 100 94 84 73 91 70 49 36 43 43 45 45 56 62 57 48 48 54 51 38 38 46 48 57 82 96 100 99 73 54 47 71 80 91 97 90 94 90 74 71 66 57 59
96 100 100 99 90 69 80 44 43 43 45 44 37 53 60 62 61 71 73 81 90 83 68 70 72 68 75 88 78 47 50 79 85 79 85 80 76 77 73 70 62 59 80 82
99 100 100 100 77 81 100 56 54 41 49 44 41 46 45 48 49 45 37 34 42 37 44 48 34 28 25 25 28 34 38 56 77 84 85 82 76 70 64 58 71 92 91 91
94 100 97 100 91 99 75 81 54 51 60 45 44 46 53 51 48 42 34 39 50 54 55 54 54 45 45 43 41 37 41 55 79 85 81 78 76 74 76 91 100 100 97 96
87 100 100 100 96 100 100 66 63 57 65 44 52 47 52 51 63 61 53 57 56 50 56 55 48 50 46 48 49 57 69 82 91 93 93 94 93 93 98 100 99 94 99 100
100 100 100 100 100 100 100 77 58 60 78 47 47 54 53 51 54 74 78 64 56 60 65 71 72 63 61 76 86 91 94 96 98 99 98 98 99 99 95 91 96 93 85 87
100 100 100 100 100 100 100 89 59 59 74 56 54 50 52 48 43 58 73 88 89 60 45 48 61 69 74 82 90 95 95 92 91 88 86 83 86 83 83 85 88 96 81 74
93 100 100 100 100 100 100 75 62 64 71 74 85 54 55 54 46 43 62 72 68 58 50 46 44 46 55 64 71 74 75 79 81 81 78 78 83 88 93 100 93 88 96 96
92 100 100 100 100 100 100 91 81 74 72 89 91 65 69 66 53 47 53 86 89 83 80 79 73 66 60 60 62 69 74 76 81 87 89 91 96 100 93 86 90 86 83 79
100 100 100 100 100 93 78 83 94 79 63 100 81 78 80 78 70 54 56 68 76 90 94 91 86 83 82 83 84 89 93 92 92 97 95 85 76 73 78 83 85 84 87 85
100 100 100 86 99 80 78 69 63 84 100 90 92 88 76 82 72 60 54 73 73 78 83 86 89 93 99 98 92 84 81 78 76 76 72 70 78 87 85 80 75 90 97 89
100 100 100 100 98 80 77 60 62 80 100 97 92 91 91 83 71 63 62 64 76 70 75 78 90 95 88 77 76 75 74 72 71 70 73 80 84 84 68 71 86 100 86 75